Terminal Aerodrome Forecast
Issued by NWS

Home | Current Version | Previous Version | Text Only | Print | Product List | Glossary On
Versions: 1 2 3 4 5 6 7 8 9 10 11 12 13 14 15 16 17 18 19 20 21 22 23 24 25 26 27 28
539
FTUS43 KDVN 101120
TAFBRL
TAF
KBRL 101120Z 1012/1112 30006KT P6SM SCT200
     FM101800 VRB04KT P6SM BKN040=

USA.gov is the U.S. government's official web portal to all federal, state and local government web resources and services.